Regional Weather Roundup
Issued by NWS Newport/Morehead, NC

Home | Current Version | Previous Version | Text Only | Print | Product List | Glossary On
Versions: 1 2 3 4 5 6 7 8 9 10 11 12 13 14 15 16 17 18 19 20 21 22 23 24 25 26 27 28 29 30 31 32 33 34 35 36 37 38 39 40 41 42 43 44 45 46 47 48 49 50
868
ASUS42 KMHX 041125
RWRMHX
WEATHER ROUNDUP FOR EASTERN NORTH CAROLINA
NATIONAL WEATHER SERVICE NEWPORT/MOREHEAD CITY NC
700 AM EDT WED MAY 04 2016

NOTE: "FAIR" INDICATES FEW OR NO CLOUDS BELOW 12,000 FEET
WITH NO SIGNIFICANT WEATHER AND/OR OBSTRUCTIONS TO VISIBILITY

NCZ015>017-031-032-045>047-102-103-041200-
NORTH COAST

CITY           SKY/WX    TMP DP  RH WIND       PRES   REMARKS
EDENTON        CLOUDY    65  65 100 CALM      29.67S
ELIZABETH CITY CLOUDY    61  61 100 NE10      29.68R FOG
KITTY HAWK     FOG       61  60  97 N5        29.64S VSB 1/4
MANTEO         NOT AVBL

$$

NCZ045>047-081-094-103-104-041200-
CENTRAL COAST

CITY           SKY/WX    TMP DP  RH WIND       PRES   REMARKS
FRISCO         CLOUDY    67  65  93 W6        29.67R
SWANQUARTER    NOT AVBL

$$

NCZ095-097-098-100-101-041200-
SOUTHERN COAST

CITY           SKY/WX    TMP DP  RH WIND       PRES   REMARKS
BEAUFORT       MOCLDY    69  64  84 SW10      29.69R
CEDAR ISLAND   NOT AVBL
JACKSONVILLE   MOCLDY    68  65  90 SW6       29.68R
PINEY ISLAND   NOT AVBL
WILMINGTON     MOCLDY    65  63  93 S5        29.69S


$$

NCZ011>013-027>030-043-044-078>080-089-090>093-098-041200-
COASTAL PLAIN

CITY           SKY/WX    TMP DP  RH WIND       PRES   REMARKS
AHOSKIE        CLOUDY    60  59  97 CALM      29.69R FOG
CLINTON        CLOUDY    64  63  97 CALM      29.69S
ELIZABETHTOWN  LGT RAIN  66  66  99 CALM      29.70R
GOLDSBORO      CLOUDY    62  62 100 W5        29.67R
GREENVILLE     CLOUDY    63  63 100 CALM      29.70S FOG
HAVELOCK       CLOUDY    67  65  93 NW9       29.69S FOG
KENANSVILLE    CLOUDY    64  62  94 CALM      29.69F
KINSTON        CLOUDY    63  63 100 S3        29.69R FOG
NEW BERN       LGT RAIN  64  62  93 CALM      29.69R FOG
RICHLANDS      LGT RAIN  64  62  93 CALM      29.69R
ROCKY MOUNT    CLOUDY    62  61  96 N5        29.69R
WASHINGTON     CLOUDY    62  61  98 W3        29.68R FOG
WHITEVILLE     NOT AVBL

$$

AMZ130-135-150-152-154-156-158-170-250-252-270-ANZ085-086-088-633-658-670-041200-
MARINE OBSERVATIONS

STATION/POSITION TIME  TEMP    WIND        PRES    WAVE   SWELL
                       AIR SEA DIR/SP/G            HT/PER HT/PER
                 (UTC) (F)     (DEG/KT/KT) (MB)    (FT/S) (FT/S)
CHESAPEAKE LIGHT 1100   53      40/ 16/ 17 1005.4
64 E VA BEACH    1050   55 54   30/  6/  8 1004.2    4/ 7   3/ 7
DUCK             NOT AVBL
2 E DUCK         1011      58                N/A     2/ 7
OREGON INLET     1100   66 71  320/  6/  8 1003.8
13E OREGON INLT  1100      62                N/A     4/ 7   5/ 7
HATTERAS CG      1100   68 69  210/  4/  6 1004.4
DIAMOND BUOY     1050   71 72  230/ 16/ 17 1004.5    4/ 7   2/ 7
CAPE LOOKOUT     1100   69     230/  8/ 12 1005.0
BEAUFORT LAB     1100   69 66  230/  5/ 13 1004.5
30 SE NEW RVR IN 1025      73                N/A     6/ 7
27 SE WRIGHTSVLE 1108   72 72  230/ 12/ 16   N/A
5 SE WRIGHTSVLE  1108   69 69  260/ 10/ 12 1006.1
225 S CAPE HAT   1050   73 74  220/ 14/ 16 1009.5    6/ 6   3/ 7
41 SE CHARLESTON 1050   74 74  250/ 14/ 16 1005.8    3/ 7   2/ 7

$$




USA.gov is the U.S. government's official web portal to all federal, state and local government web resources and services.